When you browse on this site, cookies collect data to enhance your experience and personalize the content and advertising you see.
Visit our Privacy Policy to learn more. By continuing to use the site, you agree to this use of cookies and data.
  • In Österreich
  • Länderverzeichnis
  • Für 7 Tage
  • Wassertemperatur
  • Satellitenkarten
  • Wetterkarte
  • News
  • Widgets
  • user-avatar
    Anmelden

    Stündliche Wetter Benguela

    Heute, 19 April, Freitag

    Zeit Temperatur Niederschläge Wind Luftdruck Luftfeuchtigkeit
    00:00 +28°C° 0.5 mm 2 m/S 758 mmHg 79%
    01:00 +28°C° 0 mm 2 m/S 758 mmHg 83%
    02:00 +28°C° 0.6 mm 2 m/S 758 mmHg 83%
    03:00 +28°C° 0.6 mm 2 m/S 758 mmHg 83%
    04:00 +28°C° 0.6 mm 2 m/S 758 mmHg 83%
    05:00 +28°C° 0.2 mm 2 m/S 758 mmHg 82%
    06:00 +29°C° 0.2 mm 2 m/S 758 mmHg 80%
    07:00 +29°C° 0.2 mm 1 m/S 759 mmHg 79%
    08:00 +31°C° 0 mm 1 m/S 759 mmHg 70%
    09:00 +33°C° 0 mm 1 m/S 759 mmHg 62%
    10:00 +35°C° 0 mm 1 m/S 759 mmHg 54%
    11:00 +37°C° 0 mm 2 m/S 758 mmHg 51%
    12:00 +37°C° 0 mm 3 m/S 758 mmHg 49%
    13:00 +38°C° 0 mm 4 m/S 757 mmHg 47%
    14:00 +38°C° 0 mm 4 m/S 757 mmHg 49%
    15:00 +37°C° 0 mm 4 m/S 757 mmHg 51%
    16:00 +36°C° 0 mm 4 m/S 757 mmHg 53%
    17:00 +35°C° 0 mm 3 m/S 757 mmHg 60%
    18:00 +33°C° 0 mm 3 m/S 758 mmHg 67%
    19:00 +30°C° 0 mm 2 m/S 758 mmHg 74%
    20:00 +30°C° 0 mm 2 m/S 758 mmHg 74%
    21:00 +29°C° 0 mm 2 m/S 759 mmHg 74%
    22:00 +29°C° 0 mm 2 m/S 759 mmHg 75%
    23:00 +29°C° 0 mm 2 m/S 759 mmHg 74%

    Morgen, 20 April, Samstag

    Zeit Temperatur Niederschläge Wind Luftdruck Luftfeuchtigkeit
    00:00 +29°C° 0 mm 2 m/S 759 mmHg 74%
    01:00 +29°C° 0 mm 1 m/S 759 mmHg 73%
    02:00 +29°C° 0.2 mm 2 m/S 758 mmHg 75%
    03:00 +29°C° 0.2 mm 2 m/S 758 mmHg 76%
    04:00 +28°C° 0.2 mm 2 m/S 757 mmHg 77%
    05:00 +28°C° 0 mm 2 m/S 757 mmHg 76%
    06:00 +28°C° 0 mm 2 m/S 758 mmHg 74%
    07:00 +29°C° 0 mm 2 m/S 758 mmHg 72%
    08:00 +31°C° 0 mm 2 m/S 758 mmHg 63%
    09:00 +33°C° 0 mm 1 m/S 758 mmHg 54%
    10:00 +36°C° 0 mm 1 m/S 758 mmHg 45%
    11:00 +37°C° 0 mm 2 m/S 757 mmHg 43%
    12:00 +38°C° 0 mm 3 m/S 756 mmHg 41%
    13:00 +40°C° 0 mm 4 m/S 756 mmHg 40%
    14:00 +38°C° 0 mm 4 m/S 755 mmHg 44%
    15:00 +37°C° 0 mm 4 m/S 755 mmHg 49%
    16:00 +36°C° 0 mm 4 m/S 755 mmHg 54%
    17:00 +34°C° 0 mm 3 m/S 755 mmHg 61%
    18:00 +31°C° 0 mm 3 m/S 756 mmHg 67%
    19:00 +30°C° 0 mm 2 m/S 757 mmHg 74%
    20:00 +29°C° 0 mm 1 m/S 757 mmHg 77%
    21:00 +29°C° 0 mm 1 m/S 758 mmHg 79%
    22:00 +28°C° 0 mm 1 m/S 759 mmHg 82%
    23:00 +28°C° 0.2 mm 1 m/S 758 mmHg 82%

    übermorgen, 21 April, Sonntag

    Zeit Temperatur Niederschläge Wind Luftdruck Luftfeuchtigkeit
    00:00 +28°C° 0.2 mm 1 m/S 758 mmHg 82%
    01:00 +28°C° 0.2 mm 2 m/S 758 mmHg 81%
    02:00 +28°C° 0.5 mm 1 m/S 758 mmHg 81%
    03:00 +28°C° 0.5 mm 1 m/S 757 mmHg 81%
    04:00 +28°C° 0.5 mm 1 m/S 757 mmHg 81%
    05:00 +28°C° 0.1 mm 1 m/S 757 mmHg 79%
    06:00 +28°C° 0.1 mm 1 m/S 758 mmHg 78%
    07:00 +29°C° 0.1 mm 1 m/S 758 mmHg 77%
    08:00 +30°C° 0 mm 1 m/S 758 mmHg 70%
    09:00 +32°C° 0 mm 1 m/S 758 mmHg 63%
    10:00 +35°C° 0 mm 2 m/S 759 mmHg 56%
    11:00 +35°C° 0 mm 2 m/S 758 mmHg 55%
    12:00 +36°C° 0 mm 3 m/S 757 mmHg 53%
    13:00 +37°C° 0 mm 4 m/S 756 mmHg 52%
    14:00 +36°C° 0 mm 4 m/S 756 mmHg 56%
    15:00 +35°C° 0 mm 4 m/S 755 mmHg 59%
    16:00 +34°C° 0 mm 3 m/S 755 mmHg 63%
    17:00 +33°C° 0 mm 3 m/S 755 mmHg 67%
    18:00 +30°C° 0 mm 2 m/S 756 mmHg 72%
    19:00 +29°C° 0 mm 2 m/S 756 mmHg 77%
    20:00 +29°C° 0 mm 1 m/S 757 mmHg 79%
    21:00 +28°C° 0 mm 1 m/S 758 mmHg 80%
    22:00 +28°C° 0 mm 1 m/S 758 mmHg 82%
    23:00 +28°C° 0 mm 1 m/S 758 mmHg 82%

    22 April, Montag

    Zeit Temperatur Niederschläge Wind Luftdruck Luftfeuchtigkeit
    00:00 +28°C° 0 mm 1 m/S 758 mmHg 82%
    01:00 +28°C° 0 mm 1 m/S 757 mmHg 82%
    02:00 +28°C° 0 mm 1 m/S 757 mmHg 82%
    03:00 +27°C° 0 mm 1 m/S 757 mmHg 82%
    04:00 +27°C° 0 mm 1 m/S 757 mmHg 83%
    05:00 +28°C° 0 mm 1 m/S 757 mmHg 80%
    06:00 +28°C° 0 mm 1 m/S 757 mmHg 78%
    07:00 +28°C° 0 mm 1 m/S 757 mmHg 76%
    08:00 +30°C° 0 mm 1 m/S 758 mmHg 68%
    09:00 +32°C° 0 mm 1 m/S 758 mmHg 60%
    10:00 +34°C° 0 mm 1 m/S 758 mmHg 53%
    11:00 +36°C° 0 mm 2 m/S 757 mmHg 52%
    12:00 +36°C° 0 mm 3 m/S 756 mmHg 51%
    13:00 +37°C° 0 mm 4 m/S 755 mmHg 50%
    14:00 +36°C° 0 mm 4 m/S 755 mmHg 52%
    15:00 +36°C° 0 mm 4 m/S 755 mmHg 54%
    16:00 +35°C° 0 mm 4 m/S 754 mmHg 57%
    17:00 +33°C° 0 mm 3 m/S 755 mmHg 62%
    18:00 +31°C° 0 mm 3 m/S 756 mmHg 66%
    19:00 +30°C° 0 mm 3 m/S 756 mmHg 71%
    20:00 +29°C° 0 mm 3 m/S 756 mmHg 73%
    21:00 +29°C° 0 mm 2 m/S 757 mmHg 74%
    22:00 +28°C° 0 mm 2 m/S 757 mmHg 76%
    23:00 +28°C° 0 mm 2 m/S 757 mmHg 77%

    23 April, Dienstag

    Zeit Temperatur Niederschläge Wind Luftdruck Luftfeuchtigkeit
    00:00 +28°C° 0 mm 1 m/S 757 mmHg 78%
    01:00 +28°C° 0 mm 1 m/S 757 mmHg 79%
    02:00 +27°C° 0 mm 1 m/S 757 mmHg 80%
    03:00 +27°C° 0 mm 1 m/S 756 mmHg 81%
    04:00 +27°C° 0 mm 1 m/S 756 mmHg 82%
    05:00 +28°C° 0 mm 1 m/S 757 mmHg 80%
    06:00 +28°C° 0 mm 1 m/S 757 mmHg 78%
    07:00 +29°C° 0 mm 1 m/S 757 mmHg 75%
    08:00 +31°C° 0 mm 1 m/S 757 mmHg 68%
    09:00 +33°C° 0 mm 1 m/S 757 mmHg 60%
    10:00 +35°C° 0 mm 1 m/S 758 mmHg 52%
    11:00 +36°C° 0 mm 2 m/S 757 mmHg 50%
    12:00 +37°C° 0 mm 3 m/S 756 mmHg 49%
    13:00 +38°C° 0 mm 4 m/S 755 mmHg 47%
    14:00 +37°C° 0 mm 4 m/S 755 mmHg 49%
    15:00 +36°C° 0 mm 4 m/S 755 mmHg 51%
    16:00 +36°C° 0 mm 4 m/S 754 mmHg 53%
    17:00 +34°C° 0 mm 3 m/S 755 mmHg 58%
    18:00 +31°C° 0 mm 3 m/S 756 mmHg 63%
    19:00 +30°C° 0 mm 2 m/S 756 mmHg 68%
    20:00 +29°C° 0 mm 2 m/S 757 mmHg 70%
    21:00 +29°C° 0 mm 1 m/S 757 mmHg 71%
    22:00 +29°C° 0 mm 1 m/S 758 mmHg 73%
    23:00 +29°C° 0 mm 1 m/S 757 mmHg 73%

    24 April, Mittwoch

    Zeit Temperatur Niederschläge Wind Luftdruck Luftfeuchtigkeit
    00:00 +29°C° 0 mm 1 m/S 757 mmHg 73%
    01:00 +28°C° 0 mm 1 m/S 757 mmHg 73%
    02:00 +28°C° 0 mm 1 m/S 757 mmHg 73%
    03:00 +28°C° 0 mm 1 m/S 756 mmHg 73%
    04:00 +28°C° 0 mm 1 m/S 756 mmHg 74%
    05:00 +28°C° 0 mm 1 m/S 757 mmHg 73%
    06:00 +29°C° 0 mm 1 m/S 757 mmHg 72%
    07:00 +29°C° 0 mm 1 m/S 758 mmHg 71%
    08:00 +31°C° 0 mm 1 m/S 758 mmHg 63%
    09:00 +34°C° 0 mm 1 m/S 758 mmHg 56%
    10:00 +36°C° 0 mm 1 m/S 758 mmHg 48%
    11:00 +38°C° 0 mm 2 m/S 757 mmHg 46%
    12:00 +38°C° 0 mm 4 m/S 756 mmHg 44%
    13:00 +40°C° 0 mm 5 m/S 755 mmHg 42%
    14:00 +39°C° 0 mm 5 m/S 755 mmHg 46%
    15:00 +37°C° 0 mm 4 m/S 755 mmHg 49%
    16:00 +36°C° 0 mm 4 m/S 755 mmHg 53%
    17:00 +34°C° 0 mm 4 m/S 755 mmHg 57%
    18:00 +33°C° 0 mm 3 m/S 756 mmHg 61%
    19:00 +30°C° 0 mm 2 m/S 757 mmHg 66%
    20:00 +30°C° 0.1 mm 2 m/S 757 mmHg 67%
    21:00 +29°C° 0.1 mm 2 m/S 757 mmHg 68%
    22:00 +29°C° 0.1 mm 2 m/S 758 mmHg 70%
    23:00 +29°C° 0 mm 2 m/S 757 mmHg 70%
    Mehr zeigen